Location: College Park
(38.9810°N, 76.9370°W)
Time: 23:15:28
(UTC-05:00)

Tiangong 2 - Pass Details

Date: 16 February 2018
Orbit: 384 x 389 km, 42.8° (Epoch: 23 February)

Event Time Altitude Azimuth Distance (km) Brightness Sun altitude
Rises 19:03:16 0° 282° (WNW) 2,263 6.5 -15.6°
Reaches altitude 10° 19:05:25 10° 291° (WNW) 1,408 5.0 -16.0°
Maximum altitude 19:08:26 39° 2° (N) 594 1.9 -16.6°
Enters shadow 19:09:04 34° 33° (NNE) 651 1.9 -16.7°
